This is the latest recevied weather packets stored in our database for station/object HI3FAM-13. If no packets are shown the sender has not sent any weather packets the latest 10 day(s).
| Time | Temp. | Humidity | Pressure | Rain* | Wind** | Luminosity | Snow |
|---|---|---|---|---|---|---|---|
| 1788105088 | 32.78° C | 74% | 1015 hPa | 0 mm | - | - | - |
| 1788104487 | 32.78° C | 74% | 1015 hPa | 0.25 mm | - | - | - |
| 1788103886 | 32.78° C | 74% | 1016 hPa | 0 mm | - | - | - |
| 1788103285 | 32.78° C | 74% | 1016 hPa | 0 mm | - | - | - |
| 1788102684 | 32.78° C | 74% | 1016 hPa | 0 mm | - | - | - |
| 1788102083 | 33.33° C | 74% | 1016 hPa | 0 mm | - | - | - |
| 1788101482 | 33.89° C | 74% | 1016 hPa | 0 mm | - | - | - |
| 1788100881 | 30.56° C | 74% | 1016 hPa | 0 mm | - | - | - |
| 1788100280 | 28.89° C | 74% | 1016 hPa | 0 mm | - | - | - |
| 1788099679 | 29.44° C | 76% | 1016 hPa | 0 mm | - | - | - |
| 1788099078 | 30° C | 80% | 1016 hPa | 0 mm | - | - | - |
| 1788098477 | 30.56° C | 83% | 1016 hPa | 0 mm | - | - | - |
| 1788097876 | 31.11° C | 83% | 1016 hPa | 0 mm | - | - | - |
| 1788097275 | 31.11° C | 83% | 1016 hPa | 0 mm | - | - | - |
| 1788096674 | 26.11° C | 89% | 1016 hPa | 0 mm | - | - | - |
| 1788096073 | 26.11° C | 90% | 1016 hPa | 0 mm | - | - | - |
| 1788095472 | 26.11° C | 93% | 1016 hPa | 0 mm | - | - | - |
| 1788094871 | 26.11° C | 93% | 1016 hPa | 0 mm | - | - | - |
| 1788094270 | 26.11° C | 93% | 1016 hPa | 0 mm | - | - | - |
| 1788093669 | 26.11° C | 93% | 1016 hPa | 0 mm | - | - | - |
| 1788093068 | 24.44° C | 93% | 1016 hPa | 0 mm | - | - | - |
| 1788092467 | 25° C | 93% | 1016 hPa | 0 mm | - | - | - |
| 1788091866 | 25.56° C | 93% | 1016 hPa | 0 mm | - | - | - |
| 1788091265 | 25.56° C | 93% | 1016 hPa | 0 mm | - | - | - |
| 1788090664 | 25.56° C | 93% | 1016 hPa | 0 mm | - | - | - |
* Rain latest hour (hover to see other rain measurements)
** Current wind speed in m/s (hover to see current wind gust speed)